Time,TemperatureF,DewpointF,PressureIn,WindDirection,WindDirectionDegrees,WindSpeedMPH,WindSpeedGustMPH,Humidity,HourlyPrecipIn,Conditions,Clouds,dailyrainin,SoftwareType,DateUTC
2013-08-13 00:00:00,65.6,60.6,29.93,NW,323,1.0,8.0,84,0.00,,,0.00,Wunderground v.1.15,2013-08-13 05:00:00,
2013-08-13 00:02:00,65.5,60.5,29.93,NW,323,2.0,8.0,84,0.00,,,0.00,Wunderground v.1.15,2013-08-13 05:02:00,
2013-08-13 00:04:00,65.5,60.5,29.93,NW,325,2.0,8.0,84,0.00,,,0.00,Wunderground v.1.15,2013-08-13 05:04:00,
2013-08-13 00:06:00,65.4,60.4,29.93,NW,325,2.0,8.0,84,0.00,,,0.00,Wunderground v.1.15,2013-08-13 05:06:00,
2013-08-13 00:10:00,65.3,60.3,29.93,NNW,332,2.0,8.0,84,0.00,,,0.00,Wunderground v.1.15,2013-08-13 05:10:00,
2013-08-13 00:12:00,65.2,60.2,29.93,NNW,332,2.0,8.0,84,0.00,,,0.00,Wunderground v.1.15,2013-08-13 05:12:00,
2013-08-13 00:16:00,65.0,60.0,29.93,NNW,328,2.0,8.0,84,0.00,,,0.00,Wunderground v.1.15,2013-08-13 05:16:00,
2013-08-13 00:18:00,64.9,59.9,29.93,NW,326,2.0,8.0,84,0.00,,,0.00,Wunderground v.1.15,2013-08-13 05:18:00,
2013-08-13 00:21:00,64.6,60.0,29.93,NW,326,2.0,8.0,85,0.00,,,0.00,Wunderground v.1.15,2013-08-13 05:21:00,
2013-08-13 00:26:00,64.2,59.9,29.93,NW,326,2.0,8.0,86,0.00,,,0.00,Wunderground v.1.15,2013-08-13 05:26:00,
2013-08-13 00:28:00,64.0,59.7,29.93,NW,326,2.0,8.0,86,0.00,,,0.00,Wunderground v.1.15,2013-08-13 05:28:00,
2013-08-13 00:32:00,63.9,60.0,29.93,NW,326,2.0,8.0,87,0.00,,,0.00,Wunderground v.1.15,2013-08-13 05:32:00,
2013-08-13 00:34:00,63.9,59.6,29.93,NNW,328,2.0,8.0,86,0.00,,,0.00,Wunderground v.1.15,2013-08-13 05:34:00,
2013-08-13 00:38:00,63.9,59.6,29.93,NNW,330,2.0,8.0,86,0.00,,,0.00,Wunderground v.1.15,2013-08-13 05:38:00,
2013-08-13 00:39:00,63.9,59.6,29.93,NNW,330,2.0,8.0,86,0.00,,,0.00,Wunderground v.1.15,2013-08-13 05:39:00,
2013-08-13 00:44:00,63.7,59.4,29.93,NNW,330,2.0,8.0,86,0.00,,,0.00,Wunderground v.1.15,2013-08-13 05:44:00,
2013-08-13 00:46:00,63.6,59.7,29.93,NW,323,2.0,8.0,87,0.00,,,0.00,Wunderground v.1.15,2013-08-13 05:46:00,
2013-08-13 00:50:00,63.3,59.4,29.93,NW,322,2.0,8.0,87,0.00,,,0.00,Wunderground v.1.15,2013-08-13 05:50:00,
2013-08-13 00:52:00,63.2,59.3,29.93,NW,323,2.0,8.0,87,0.00,,,0.00,Wunderground v.1.15,2013-08-13 05:52:00,
2013-08-13 00:56:00,63.0,59.1,29.93,NW,323,2.0,8.0,87,0.00,,,0.00,Wunderground v.1.15,2013-08-13 05:56:00,
2013-08-13 00:58:00,62.9,59.0,29.93,NW,323,2.0,8.0,87,0.00,,,0.00,Wunderground v.1.15,2013-08-13 05:58:00,
2013-08-13 00:59:00,62.9,59.0,29.93,NW,323,2.0,8.0,87,0.00,,,0.00,Wunderground v.1.15,2013-08-13 05:59:00,
2013-08-13 01:04:00,62.7,59.1,29.93,NW,323,2.0,8.0,88,0.00,,,0.00,Wunderground v.1.15,2013-08-13 06:04:00,
2013-08-13 01:06:00,62.6,59.0,29.93,NW,323,2.0,8.0,88,0.00,,,0.00,Wunderground v.1.15,2013-08-13 06:06:00,
2013-08-13 01:08:00,62.6,59.0,29.93,NW,323,2.0,8.0,88,0.00,,,0.00,Wunderground v.1.15,2013-08-13 06:08:00,
2013-08-13 01:10:00,62.6,59.0,29.93,NW,323,2.0,8.0,88,0.00,,,0.00,Wunderground v.1.15,2013-08-13 06:10:00,
2013-08-13 01:12:00,62.6,59.0,29.93,NW,323,2.0,8.0,88,0.00,,,0.00,Wunderground v.1.15,2013-08-13 06:12:00,
2013-08-13 01:14:00,62.6,59.0,29.93,NW,323,2.0,8.0,88,0.00,,,0.00,Wunderground v.1.15,2013-08-13 06:14:00,
2013-08-13 01:16:00,62.6,59.0,29.93,NW,323,2.0,8.0,88,0.00,,,0.00,Wunderground v.1.15,2013-08-13 06:16:00,
2013-08-13 01:18:00,62.6,59.0,29.93,NW,323,2.0,8.0,88,0.00,,,0.00,Wunderground v.1.15,2013-08-13 06:18:00,
2013-08-13 01:20:00,62.5,58.9,29.93,NW,323,2.0,8.0,88,0.00,,,0.00,Wunderground v.1.15,2013-08-13 06:20:00,
2013-08-13 01:22:00,62.5,58.9,29.93,NW,323,2.0,8.0,88,0.00,,,0.00,Wunderground v.1.15,2013-08-13 06:22:00,
2013-08-13 01:24:00,62.5,58.9,29.93,NW,323,2.0,8.0,88,0.00,,,0.00,Wunderground v.1.15,2013-08-13 06:24:00,
2013-08-13 01:28:00,62.4,58.8,29.93,NW,323,1.0,8.0,88,0.00,,,0.00,Wunderground v.1.15,2013-08-13 06:28:00,
2013-08-13 01:30:00,62.4,58.8,29.93,NW,323,1.0,8.0,88,0.00,,,0.00,Wunderground v.1.15,2013-08-13 06:30:00,
2013-08-13 01:32:00,62.3,58.7,29.93,NW,323,1.0,8.0,88,0.00,,,0.00,Wunderground v.1.15,2013-08-13 06:32:00,
2013-08-13 01:36:00,62.3,58.7,29.93,NW,323,1.0,8.0,88,0.00,,,0.00,Wunderground v.1.15,2013-08-13 06:36:00,
2013-08-13 01:38:00,62.3,58.7,29.93,NW,323,1.0,8.0,88,0.00,,,0.00,Wunderground v.1.15,2013-08-13 06:38:00,
2013-08-13 01:40:00,62.3,58.7,29.93,NW,323,1.0,8.0,88,0.00,,,0.00,Wunderground v.1.15,2013-08-13 06:40:00,
2013-08-13 01:42:00,62.4,58.8,29.93,NNW,328,1.0,8.0,88,0.00,,,0.00,Wunderground v.1.15,2013-08-13 06:42:00,
2013-08-13 01:44:00,62.5,58.9,29.93,NNW,343,1.0,8.0,88,0.00,,,0.00,Wunderground v.1.15,2013-08-13 06:44:00,
2013-08-13 01:46:00,62.5,58.6,29.93,NNW,340,1.0,8.0,87,0.00,,,0.00,Wunderground v.1.15,2013-08-13 06:46:00,
2013-08-13 01:48:00,62.5,58.6,29.93,NNW,343,2.0,8.0,87,0.00,,,0.00,Wunderground v.1.15,2013-08-13 06:48:00,
2013-08-13 01:52:00,62.5,58.6,29.93,North,359,2.0,8.0,87,0.00,,,0.00,Wunderground v.1.15,2013-08-13 06:52:00,
2013-08-13 01:54:00,62.3,58.4,29.93,North,1,2.0,8.0,87,0.00,,,0.00,Wunderground v.1.15,2013-08-13 06:54:00,
2013-08-13 01:56:00,62.1,58.2,29.93,North,1,2.0,8.0,87,0.00,,,0.00,Wunderground v.1.15,2013-08-13 06:56:00,
2013-08-13 01:58:00,61.8,57.9,29.93,North,8,2.0,8.0,87,0.00,,,0.00,Wunderground v.1.15,2013-08-13 06:58:00,
2013-08-13 02:02:00,61.4,57.8,29.93,North,8,2.0,8.0,88,0.00,,,0.00,Wunderground v.1.15,2013-08-13 07:02:00,
2013-08-13 02:06:00,61.3,57.7,29.93,NNW,347,2.0,8.0,88,0.00,,,0.00,Wunderground v.1.15,2013-08-13 07:06:00,
2013-08-13 02:08:00,61.3,58.0,29.93,NNW,344,2.0,8.0,89,0.00,,,0.00,Wunderground v.1.15,2013-08-13 07:08:00,
2013-08-13 02:12:00,61.4,57.8,29.93,North,356,2.0,8.0,88,0.00,,,0.00,Wunderground v.1.15,2013-08-13 07:12:00,
2013-08-13 02:14:00,61.6,58.0,29.93,North,352,2.0,8.0,88,0.00,,,0.00,Wunderground v.1.15,2013-08-13 07:14:00,
2013-08-13 02:18:00,61.6,58.0,29.93,NNW,344,4.0,8.0,88,0.00,,,0.00,Wunderground v.1.15,2013-08-13 07:18:00,
2013-08-13 02:20:00,61.5,57.9,29.93,NNW,340,4.0,8.0,88,0.00,,,0.00,Wunderground v.1.15,2013-08-13 07:20:00,
2013-08-13 02:23:00,61.3,57.7,29.93,North,351,5.0,8.0,88,0.00,,,0.00,Wunderground v.1.15,2013-08-13 07:23:00,
2013-08-13 02:26:00,61.3,57.7,29.93,North,349,5.0,8.0,88,0.00,,,0.00,Wunderground v.1.15,2013-08-13 07:26:00,
2013-08-13 02:28:00,61.1,57.8,29.93,North,354,5.0,8.0,89,0.00,,,0.00,Wunderground v.1.15,2013-08-13 07:28:00,
2013-08-13 02:32:00,61.1,57.8,29.93,North,11,5.0,6.0,89,0.00,,,0.00,Wunderground v.1.15,2013-08-13 07:32:00,
2013-08-13 02:34:00,61.1,57.8,29.94,NNW,336,5.0,8.0,89,0.00,,,0.00,Wunderground v.1.15,2013-08-13 07:34:00,
2013-08-13 02:38:00,61.0,57.7,29.94,North,351,5.0,8.0,89,0.00,,,0.00,Wunderground v.1.15,2013-08-13 07:38:00,
2013-08-13 02:40:00,60.9,57.9,29.93,NNW,347,5.0,8.0,90,0.00,,,0.00,Wunderground v.1.15,2013-08-13 07:40:00,
2013-08-13 02:44:00,60.8,57.8,29.94,NNW,343,4.0,8.0,90,0.00,,,0.00,Wunderground v.1.15,2013-08-13 07:44:00,
2013-08-13 02:46:00,60.7,57.7,29.93,North,350,4.0,8.0,90,0.00,,,0.00,Wunderground v.1.15,2013-08-13 07:46:00,
2013-08-13 02:48:00,60.7,57.7,29.94,NNW,346,4.0,8.0,90,0.00,,,0.00,Wunderground v.1.15,2013-08-13 07:48:00,
2013-08-13 02:52:00,60.6,57.7,29.94,North,8,4.0,8.0,90,0.00,,,0.00,Wunderground v.1.15,2013-08-13 07:52:00,
2013-08-13 02:54:00,60.6,57.7,29.94,NNE,19,4.0,8.0,90,0.00,,,0.00,Wunderground v.1.15,2013-08-13 07:54:00,
2013-08-13 02:56:00,60.7,57.7,29.94,NNE,13,4.0,8.0,90,0.00,,,0.00,Wunderground v.1.15,2013-08-13 07:56:00,
2013-08-13 03:00:00,60.7,57.7,29.94,North,4,4.0,4.0,90,0.00,,,0.00,Wunderground v.1.15,2013-08-13 08:00:00,
2013-08-13 03:02:00,60.7,57.7,29.94,North,355,4.0,8.0,90,0.00,,,0.00,Wunderground v.1.15,2013-08-13 08:02:00,
2013-08-13 03:06:00,60.7,57.7,29.94,North,349,4.0,8.0,90,0.00,,,0.00,Wunderground v.1.15,2013-08-13 08:06:00,
2013-08-13 03:10:00,60.7,57.7,29.94,North,5,4.0,4.0,90,0.00,,,0.00,Wunderground v.1.15,2013-08-13 08:10:00,
2013-08-13 03:12:00,60.6,57.7,29.94,North,1,4.0,8.0,90,0.00,,,0.00,Wunderground v.1.15,2013-08-13 08:12:00,
2013-08-13 03:16:00,60.6,58.0,29.94,North,8,4.0,8.0,91,0.00,,,0.00,Wunderground v.1.15,2013-08-13 08:16:00,
2013-08-13 03:18:00,60.7,58.1,29.94,NNE,18,5.0,8.0,91,0.00,,,0.00,Wunderground v.1.15,2013-08-13 08:18:00,
2013-08-13 03:20:00,60.6,57.7,29.94,North,4,5.0,8.0,90,0.00,,,0.00,Wunderground v.1.15,2013-08-13 08:20:00,
2013-08-13 03:26:00,60.6,58.0,29.94,NNE,13,6.0,8.0,91,0.00,,,0.00,Wunderground v.1.15,2013-08-13 08:26:00,
2013-08-13 03:28:00,60.6,58.0,29.94,NNE,20,6.0,8.0,91,0.00,,,0.00,Wunderground v.1.15,2013-08-13 08:28:00,
2013-08-13 03:30:00,60.5,57.9,29.94,North,9,6.0,8.0,91,0.00,,,0.00,Wunderground v.1.15,2013-08-13 08:30:00,
2013-08-13 03:33:00,60.4,58.1,29.94,North,11,6.0,8.0,92,0.00,,,0.00,Wunderground v.1.15,2013-08-13 08:33:00,
2013-08-13 03:36:00,60.3,58.0,29.94,NNE,25,6.0,8.0,92,0.00,,,0.00,Wunderground v.1.15,2013-08-13 08:36:00,
2013-08-13 03:40:00,60.1,58.1,29.95,NNE,27,5.0,5.0,93,0.00,,,0.00,Wunderground v.1.15,2013-08-13 08:40:00,
2013-08-13 03:42:00,60.0,58.0,29.95,NNE,30,5.0,6.0,93,0.00,,,0.00,Wunderground v.1.15,2013-08-13 08:42:00,
2013-08-13 03:44:00,60.0,58.0,29.95,NNE,24,5.0,8.0,93,0.00,,,0.00,Wunderground v.1.15,2013-08-13 08:44:00,
2013-08-13 03:46:00,60.0,58.0,29.95,NNE,16,5.0,8.0,93,0.00,,,0.00,Wunderground v.1.15,2013-08-13 08:46:00,
2013-08-13 03:50:00,60.0,58.3,29.95,NNE,20,5.0,8.0,94,0.00,,,0.00,Wunderground v.1.15,2013-08-13 08:50:00,
2013-08-13 03:52:00,60.0,58.3,29.95,NNE,15,5.0,8.0,94,0.00,,,0.00,Wunderground v.1.15,2013-08-13 08:52:00,
2013-08-13 03:54:00,60.0,58.3,29.95,NNE,19,5.0,8.0,94,0.00,,,0.00,Wunderground v.1.15,2013-08-13 08:54:00,
2013-08-13 03:56:00,60.1,58.4,29.95,NNE,15,5.0,8.0,94,0.00,,,0.00,Wunderground v.1.15,2013-08-13 08:56:00,
2013-08-13 04:00:00,60.1,58.4,29.96,NNE,15,6.0,8.0,94,0.00,,,0.00,Wunderground v.1.15,2013-08-13 09:00:00,
2013-08-13 04:02:00,60.1,58.7,29.95,North,6,6.0,8.0,95,0.00,,,0.00,Wunderground v.1.15,2013-08-13 09:02:00,
2013-08-13 04:04:00,60.3,58.9,29.95,NNE,18,7.0,8.0,95,0.00,,,0.00,Wunderground v.1.15,2013-08-13 09:04:00,
2013-08-13 04:05:00,60.4,59.0,29.95,NNE,26,7.0,8.0,95,0.00,,,0.00,Wunderground v.1.15,2013-08-13 09:05:00,
2013-08-13 04:08:00,60.5,59.1,29.96,NNE,33,7.0,8.0,95,0.00,,,0.00,Wunderground v.1.15,2013-08-13 09:08:00,
2013-08-13 04:10:00,60.5,59.1,29.95,NNE,30,7.0,8.0,95,0.00,,,0.00,Wunderground v.1.15,2013-08-13 09:10:00,
2013-08-13 04:14:00,60.7,59.3,29.96,North,9,7.0,8.0,95,0.00,,,0.00,Wunderground v.1.15,2013-08-13 09:14:00,
2013-08-13 04:16:00,60.7,59.3,29.96,NNE,32,7.0,10.0,95,0.00,,,0.00,Wunderground v.1.15,2013-08-13 09:16:00,
2013-08-13 04:20:00,60.7,59.3,29.96,North,8,8.0,8.0,95,0.00,,,0.00,Wunderground v.1.15,2013-08-13 09:20:00,
2013-08-13 04:21:00,60.7,59.3,29.95,North,9,8.0,8.0,95,0.00,,,0.00,Wunderground v.1.15,2013-08-13 09:21:00,
2013-08-13 04:24:00,60.8,59.4,29.95,NNW,345,8.0,8.0,95,0.00,,,0.00,Wunderground v.1.15,2013-08-13 09:24:00,
2013-08-13 04:26:00,60.9,59.5,29.95,NNE,18,8.0,8.0,95,0.00,,,0.00,Wunderground v.1.15,2013-08-13 09:26:00,
2013-08-13 04:28:00,60.9,59.2,29.96,NE,43,8.0,8.0,94,0.00,,,0.00,Wunderground v.1.15,2013-08-13 09:28:00,
2013-08-13 04:32:00,61.0,59.0,29.96,NE,49,8.0,9.0,93,0.00,,,0.00,Wunderground v.1.15,2013-08-13 09:32:00,
2013-08-13 04:34:00,61.1,59.1,29.96,NE,43,8.0,9.0,93,0.00,,,0.00,Wunderground v.1.15,2013-08-13 09:34:00,
2013-08-13 04:38:00,61.0,59.0,29.96,NNE,29,8.0,9.0,93,0.00,,,0.00,Wunderground v.1.15,2013-08-13 09:38:00,
2013-08-13 04:40:00,60.9,58.9,29.96,ENE,63,7.0,7.0,93,0.00,,,0.00,Wunderground v.1.15,2013-08-13 09:40:00,
2013-08-13 04:42:00,60.9,58.9,29.96,NNE,26,7.0,8.0,93,0.00,,,0.00,Wunderground v.1.15,2013-08-13 09:42:00,
2013-08-13 04:44:00,60.8,58.8,29.96,NNE,25,7.0,8.0,93,0.00,,,0.00,Wunderground v.1.15,2013-08-13 09:44:00,
2013-08-13 04:46:00,60.8,58.8,29.97,North,350,7.0,8.0,93,0.00,,,0.00,Wunderground v.1.15,2013-08-13 09:46:00,
2013-08-13 04:48:00,60.6,58.6,29.97,NNE,26,7.0,8.0,93,0.00,,,0.00,Wunderground v.1.15,2013-08-13 09:48:00,
2013-08-13 04:50:00,60.6,58.6,29.97,NNE,13,6.0,8.0,93,0.00,,,0.00,Wunderground v.1.15,2013-08-13 09:50:00,
2013-08-13 04:52:00,60.5,58.5,29.97,NNE,19,6.0,8.0,93,0.00,,,0.00,Wunderground v.1.15,2013-08-13 09:52:00,
2013-08-13 04:56:00,60.4,58.7,29.97,NNE,20,6.0,8.0,94,0.00,,,0.00,Wunderground v.1.15,2013-08-13 09:56:00,
2013-08-13 05:00:00,60.3,58.6,29.97,NNE,29,6.0,8.0,94,0.00,,,0.00,Wunderground v.1.15,2013-08-13 10:00:00,
2013-08-13 05:02:00,60.3,58.6,29.97,NNE,26,6.0,8.0,94,0.00,,,0.00,Wunderground v.1.15,2013-08-13 10:02:00,
2013-08-13 05:06:00,60.2,58.5,29.97,NNE,24,5.0,8.0,94,0.00,,,0.00,Wunderground v.1.15,2013-08-13 10:06:00,
2013-08-13 05:08:00,60.2,58.5,29.98,NNE,25,5.0,8.0,94,0.00,,,0.00,Wunderground v.1.15,2013-08-13 10:08:00,
2013-08-13 05:09:00,60.1,58.4,29.98,NNE,19,5.0,5.0,94,0.00,,,0.00,Wunderground v.1.15,2013-08-13 10:09:00,
2013-08-13 05:16:00,59.9,58.5,29.98,NE,34,5.0,8.0,95,0.00,,,0.00,Wunderground v.1.15,2013-08-13 10:16:00,
2013-08-13 05:18:00,59.9,58.5,29.98,NE,40,6.0,8.0,95,0.00,,,0.00,Wunderground v.1.15,2013-08-13 10:18:00,
2013-08-13 05:20:00,59.8,58.4,29.98,NNE,26,5.0,8.0,95,0.00,,,0.00,Wunderground v.1.15,2013-08-13 10:20:00,
2013-08-13 05:22:00,59.8,58.4,29.98,NNE,13,5.0,8.0,95,0.00,,,0.00,Wunderground v.1.15,2013-08-13 10:22:00,
2013-08-13 05:24:00,59.7,58.3,29.98,North,9,5.0,8.0,95,0.00,,,0.00,Wunderground v.1.15,2013-08-13 10:24:00,
2013-08-13 05:26:00,59.6,58.2,29.99,NNE,32,5.0,8.0,95,0.00,,,0.00,Wunderground v.1.15,2013-08-13 10:26:00,
2013-08-13 05:28:00,59.6,58.2,29.99,NNE,23,5.0,8.0,95,0.00,,,0.00,Wunderground v.1.15,2013-08-13 10:28:00,
2013-08-13 05:30:00,59.6,58.2,29.99,NE,40,5.0,8.0,95,0.00,,,0.00,Wunderground v.1.15,2013-08-13 10:30:00,
2013-08-13 05:32:00,59.5,58.1,29.99,NE,34,5.0,8.0,95,0.00,,,0.00,Wunderground v.1.15,2013-08-13 10:32:00,
2013-08-13 05:34:00,59.5,58.1,29.99,NNE,30,5.0,8.0,95,0.00,,,0.00,Wunderground v.1.15,2013-08-13 10:34:00,
2013-08-13 05:38:00,59.4,58.0,29.99,NNE,20,5.0,8.0,95,0.00,,,0.00,Wunderground v.1.15,2013-08-13 10:38:00,
2013-08-13 05:40:00,59.3,57.9,30.00,NE,37,5.0,8.0,95,0.00,,,0.00,Wunderground v.1.15,2013-08-13 10:40:00,
2013-08-13 05:42:00,59.3,57.9,30.00,NNE,20,6.0,8.0,95,0.00,,,0.00,Wunderground v.1.15,2013-08-13 10:42:00,
2013-08-13 05:45:00,59.2,57.5,30.00,NNE,23,6.0,8.0,94,0.00,,,0.00,Wunderground v.1.15,2013-08-13 10:45:00,
2013-08-13 05:48:00,59.1,57.4,30.01,North,359,5.0,8.0,94,0.00,,,0.00,Wunderground v.1.15,2013-08-13 10:48:00,
2013-08-13 05:52:00,59.0,57.3,30.01,North,11,5.0,7.0,94,0.00,,,0.00,Wunderground v.1.15,2013-08-13 10:52:00,
2013-08-13 05:56:00,58.8,56.8,30.01,North,358,5.0,8.0,93,0.00,,,0.00,Wunderground v.1.15,2013-08-13 10:56:00,
2013-08-13 05:58:00,58.7,56.7,30.01,North,11,5.0,8.0,93,0.00,,,0.00,Wunderground v.1.15,2013-08-13 10:58:00,
2013-08-13 05:59:00,58.7,56.7,30.01,North,8,5.0,8.0,93,0.00,,,0.00,Wunderground v.1.15,2013-08-13 10:59:00,
2013-08-13 06:02:00,58.5,56.8,30.01,NNE,20,4.0,8.0,94,0.00,,,0.00,Wunderground v.1.15,2013-08-13 11:02:00,
2013-08-13 06:04:00,58.5,56.8,30.02,NNE,20,4.0,8.0,94,0.00,,,0.00,Wunderground v.1.15,2013-08-13 11:04:00,
2013-08-13 06:06:00,58.4,56.7,30.02,North,8,5.0,8.0,94,0.00,,,0.00,Wunderground v.1.15,2013-08-13 11:06:00,
2013-08-13 06:09:00,58.3,56.6,30.02,NNE,15,5.0,5.0,94,0.00,,,0.00,Wunderground v.1.15,2013-08-13 11:09:00,
2013-08-13 06:12:00,58.3,56.6,30.02,North,6,5.0,6.0,94,0.00,,,0.00,Wunderground v.1.15,2013-08-13 11:12:00,
2013-08-13 06:16:00,58.2,56.2,30.02,NNE,20,5.0,8.0,93,0.00,,,0.00,Wunderground v.1.15,2013-08-13 11:16:00,
2013-08-13 06:18:00,58.2,56.2,30.02,NNE,20,4.0,8.0,93,0.00,,,0.00,Wunderground v.1.15,2013-08-13 11:18:00,
2013-08-13 06:22:00,58.2,56.5,30.03,NNE,15,4.0,8.0,94,0.00,,,0.00,Wunderground v.1.15,2013-08-13 11:22:00,
2013-08-13 06:24:00,58.2,56.5,30.03,NNE,13,4.0,8.0,94,0.00,,,0.00,Wunderground v.1.15,2013-08-13 11:24:00,
2013-08-13 06:26:00,58.2,56.5,30.03,NNE,18,4.0,8.0,94,0.00,,,0.00,Wunderground v.1.15,2013-08-13 11:26:00,
2013-08-13 06:28:00,58.1,56.1,30.03,NNE,16,4.0,8.0,93,0.00,,,0.00,Wunderground v.1.15,2013-08-13 11:28:00,
2013-08-13 06:30:00,58.1,55.8,30.03,NNE,16,4.0,8.0,92,0.00,,,0.00,Wunderground v.1.15,2013-08-13 11:30:00,
2013-08-13 06:36:00,58.1,55.2,30.02,NNE,20,6.0,8.0,90,0.00,,,0.00,Wunderground v.1.15,2013-08-13 11:36:00,
2013-08-13 06:38:00,58.0,55.1,30.02,North,9,7.0,8.0,90,0.00,,,0.00,Wunderground v.1.15,2013-08-13 11:38:00,
2013-08-13 06:40:00,57.9,55.0,30.02,North,11,7.0,10.0,90,0.00,,,0.00,Wunderground v.1.15,2013-08-13 11:40:00,
2013-08-13 06:42:00,57.9,54.7,30.02,NNW,340,7.0,10.0,89,0.00,,,0.00,Wunderground v.1.15,2013-08-13 11:42:00,
2013-08-13 06:46:00,57.8,54.3,30.02,NNE,20,8.0,10.0,88,0.00,,,0.00,Wunderground v.1.15,2013-08-13 11:46:00,
2013-08-13 06:50:00,57.7,54.2,30.02,NNE,18,8.0,8.0,88,0.00,,,0.00,Wunderground v.1.15,2013-08-13 11:50:00,
2013-08-13 06:52:00,57.7,54.2,30.02,NNE,20,8.0,8.0,88,0.00,,,0.00,Wunderground v.1.15,2013-08-13 11:52:00,
2013-08-13 06:56:00,57.6,54.1,30.03,NNE,18,8.0,8.0,88,0.00,,,0.00,Wunderground v.1.15,2013-08-13 11:56:00,
2013-08-13 07:00:00,57.5,54.0,30.02,North,11,8.0,8.0,88,0.00,,,0.00,Wunderground v.1.15,2013-08-13 12:00:00,
2013-08-13 07:02:00,57.5,54.0,30.02,NNE,25,8.0,8.0,88,0.00,,,0.00,Wunderground v.1.15,2013-08-13 12:02:00,
2013-08-13 07:04:00,57.5,54.0,30.02,NNE,26,8.0,8.0,88,0.00,,,0.00,Wunderground v.1.15,2013-08-13 12:04:00,
2013-08-13 07:08:00,57.4,53.9,30.02,NNE,30,8.0,8.0,88,0.00,,,0.00,Wunderground v.1.15,2013-08-13 12:08:00,
2013-08-13 07:10:00,57.4,53.9,30.02,NNE,25,8.0,10.0,88,0.00,,,0.00,Wunderground v.1.15,2013-08-13 12:10:00,
2013-08-13 07:12:00,57.5,54.0,30.02,NNE,15,8.0,10.0,88,0.00,,,0.00,Wunderground v.1.15,2013-08-13 12:12:00,
2013-08-13 07:14:00,57.5,54.0,30.02,NNE,20,8.0,11.0,88,0.00,,,0.00,Wunderground v.1.15,2013-08-13 12:14:00,
2013-08-13 07:18:00,57.7,53.9,30.03,NNE,16,9.0,12.0,87,0.00,,,0.00,Wunderground v.1.15,2013-08-13 12:18:00,
2013-08-13 07:20:00,57.8,54.0,30.03,North,4,9.0,9.0,87,0.00,,,0.00,Wunderground v.1.15,2013-08-13 12:20:00,
2013-08-13 07:22:00,57.9,54.1,30.02,NNE,18,8.0,9.0,87,0.00,,,0.00,Wunderground v.1.15,2013-08-13 12:22:00,
2013-08-13 07:24:00,57.9,54.1,30.02,NNE,19,8.0,10.0,87,0.00,,,0.00,Wunderground v.1.15,2013-08-13 12:24:00,
2013-08-13 07:28:00,58.0,53.5,30.02,NNE,22,9.0,12.0,85,0.00,,,0.00,Wunderground v.1.15,2013-08-13 12:28:00,
2013-08-13 07:32:00,58.1,53.3,30.02,NNE,29,10.0,11.0,84,0.00,,,0.00,Wunderground v.1.15,2013-08-13 12:32:00,
2013-08-13 07:34:00,58.2,53.4,30.02,NNE,19,11.0,11.0,84,0.00,,,0.00,Wunderground v.1.15,2013-08-13 12:34:00,
2013-08-13 07:36:00,58.2,53.1,30.02,NNE,26,11.0,11.0,83,0.00,,,0.00,Wunderground v.1.15,2013-08-13 12:36:00,
2013-08-13 07:38:00,58.3,53.2,30.02,NNE,32,11.0,11.0,83,0.00,,,0.00,Wunderground v.1.15,2013-08-13 12:38:00,
2013-08-13 07:40:00,58.4,53.6,30.02,NNE,23,11.0,11.0,84,0.00,,,0.00,Wunderground v.1.15,2013-08-13 12:40:00,
2013-08-13 07:42:00,58.5,53.4,30.02,NNE,19,10.0,14.0,83,0.00,,,0.00,Wunderground v.1.15,2013-08-13 12:42:00,
2013-08-13 07:44:00,58.5,53.4,30.02,NNE,13,10.0,14.0,83,0.00,,,0.00,Wunderground v.1.15,2013-08-13 12:44:00,
2013-08-13 07:48:00,58.6,53.1,30.02,NNE,19,11.0,14.0,82,0.00,,,0.00,Wunderground v.1.15,2013-08-13 12:48:00,
2013-08-13 07:50:00,58.7,53.2,30.02,NNE,26,11.0,11.0,82,0.00,,,0.00,Wunderground v.1.15,2013-08-13 12:50:00,
2013-08-13 07:52:00,58.8,53.3,30.02,NNE,25,12.0,12.0,82,0.00,,,0.00,Wunderground v.1.15,2013-08-13 12:52:00,
2013-08-13 07:56:00,58.9,53.1,30.02,North,359,12.0,15.0,81,0.00,,,0.00,Wunderground v.1.15,2013-08-13 12:56:00,
2013-08-13 08:02:00,59.0,53.5,30.03,NE,54,13.0,16.0,82,0.00,,,0.00,Wunderground v.1.15,2013-08-13 13:02:00,
2013-08-13 08:08:00,59.2,53.4,30.03,NNE,13,13.0,16.0,81,0.00,,,0.00,Wunderground v.1.15,2013-08-13 13:08:00,
2013-08-13 08:12:00,59.3,53.1,30.03,NNE,15,13.0,14.0,80,0.00,,,0.00,Wunderground v.1.15,2013-08-13 13:12:00,
2013-08-13 08:16:00,59.4,53.2,30.03,NNE,12,13.0,14.0,80,0.00,,,0.00,Wunderground v.1.15,2013-08-13 13:16:00,
2013-08-13 08:18:00,59.4,53.2,30.03,North,8,13.0,15.0,80,0.00,,,0.00,Wunderground v.1.15,2013-08-13 13:18:00,
2013-08-13 08:20:00,59.5,53.3,30.03,NNE,15,13.0,13.0,80,0.00,,,0.00,Wunderground v.1.15,2013-08-13 13:20:00,
2013-08-13 08:22:00,59.6,53.1,30.04,NNE,26,13.0,13.0,79,0.00,,,0.00,Wunderground v.1.15,2013-08-13 13:22:00,
2013-08-13 08:26:00,59.8,52.9,30.04,NNE,26,12.0,14.0,78,0.00,,,0.00,Wunderground v.1.15,2013-08-13 13:26:00,
2013-08-13 08:28:00,59.9,52.7,30.04,North,352,12.0,14.0,77,0.00,,,0.00,Wunderground v.1.15,2013-08-13 13:28:00,
2013-08-13 08:30:00,59.9,52.7,30.04,NNE,15,13.0,16.0,77,0.00,,,0.00,Wunderground v.1.15,2013-08-13 13:30:00,
2013-08-13 08:32:00,59.9,52.3,30.05,NNE,25,13.0,16.0,76,0.00,,,0.00,Wunderground v.1.15,2013-08-13 13:32:00,
2013-08-13 08:33:00,60.0,52.8,30.05,North,8,13.0,16.0,77,0.00,,,0.00,Wunderground v.1.15,2013-08-13 13:33:00,
2013-08-13 08:36:00,60.2,53.0,30.05,NNE,18,13.0,16.0,77,0.00,,,0.00,Wunderground v.1.15,2013-08-13 13:36:00,
2013-08-13 08:38:00,60.4,52.4,30.05,NE,56,12.0,16.0,75,0.00,,,0.00,Wunderground v.1.15,2013-08-13 13:38:00,
2013-08-13 08:40:00,60.4,52.1,30.05,NNE,20,12.0,12.0,74,0.00,,,0.00,Wunderground v.1.15,2013-08-13 13:40:00,
2013-08-13 08:42:00,60.5,52.2,30.05,NE,51,12.0,12.0,74,0.00,,,0.00,Wunderground v.1.15,2013-08-13 13:42:00,
2013-08-13 08:44:00,60.7,52.4,30.05,NNE,26,11.0,12.0,74,0.00,,,0.00,Wunderground v.1.15,2013-08-13 13:44:00,
2013-08-13 08:46:00,61.0,52.7,30.05,NNE,23,11.0,12.0,74,0.00,,,0.00,Wunderground v.1.15,2013-08-13 13:46:00,
2013-08-13 08:48:00,61.2,52.5,30.05,NNE,27,10.0,12.0,73,0.00,,,0.00,Wunderground v.1.15,2013-08-13 13:48:00,
2013-08-13 08:50:00,61.4,52.3,30.05,North,351,9.0,9.0,72,0.00,,,0.00,Wunderground v.1.15,2013-08-13 13:50:00,
2013-08-13 08:52:00,61.5,51.6,30.06,NNE,20,9.0,12.0,70,0.00,,,0.00,Wunderground v.1.15,2013-08-13 13:52:00,
2013-08-13 08:54:00,61.6,51.3,30.06,North,8,9.0,12.0,69,0.00,,,0.00,Wunderground v.1.15,2013-08-13 13:54:00,
2013-08-13 09:00:00,62.2,51.5,30.05,NNE,23,9.0,9.0,68,0.00,,,0.00,Wunderground v.1.15,2013-08-13 14:00:00,
2013-08-13 09:04:00,62.3,51.2,30.05,NNE,15,9.0,9.0,67,0.00,,,0.00,Wunderground v.1.15,2013-08-13 14:04:00,
2013-08-13 09:08:00,62.6,51.1,30.06,NNE,30,9.0,10.0,66,0.00,,,0.00,Wunderground v.1.15,2013-08-13 14:08:00,
2013-08-13 09:10:00,62.7,50.8,30.06,North,4,9.0,10.0,65,0.00,,,0.00,Wunderground v.1.15,2013-08-13 14:10:00,
2013-08-13 09:12:00,62.7,51.2,30.06,NNE,20,10.0,11.0,66,0.00,,,0.00,Wunderground v.1.15,2013-08-13 14:12:00,
2013-08-13 09:14:00,62.6,50.2,30.06,NNE,30,10.0,11.0,64,0.00,,,0.00,Wunderground v.1.15,2013-08-13 14:14:00,
2013-08-13 09:20:00,62.6,50.7,30.06,North,8,11.0,15.0,65,0.00,,,0.00,Wunderground v.1.15,2013-08-13 14:20:00,
2013-08-13 09:22:00,62.7,51.2,30.06,NNE,20,11.0,15.0,66,0.00,,,0.00,Wunderground v.1.15,2013-08-13 14:22:00,
2013-08-13 09:26:00,62.7,50.8,30.07,NNE,30,11.0,15.0,65,0.00,,,0.00,Wunderground v.1.15,2013-08-13 14:26:00,
2013-08-13 09:30:00,63.1,50.7,30.07,NNE,19,10.0,14.0,64,0.00,,,0.00,Wunderground v.1.15,2013-08-13 14:30:00,
2013-08-13 09:32:00,63.1,50.3,30.07,North,350,10.0,14.0,63,0.00,,,0.00,Wunderground v.1.15,2013-08-13 14:32:00,
2013-08-13 09:34:00,63.0,50.2,30.07,NNE,24,10.0,14.0,63,0.00,,,0.00,Wunderground v.1.15,2013-08-13 14:34:00,
2013-08-13 09:36:00,63.1,50.7,30.08,NNE,19,10.0,14.0,64,0.00,,,0.00,Wunderground v.1.15,2013-08-13 14:36:00,
2013-08-13 09:42:00,63.3,50.5,30.07,NNE,16,10.0,11.0,63,0.00,,,0.00,Wunderground v.1.15,2013-08-13 14:42:00,
2013-08-13 09:44:00,63.3,50.1,30.07,NNE,32,10.0,11.0,62,0.00,,,0.00,Wunderground v.1.15,2013-08-13 14:44:00,
2013-08-13 09:46:00,63.4,51.0,30.08,ENE,68,10.0,13.0,64,0.00,,,0.00,Wunderground v.1.15,2013-08-13 14:46:00,
2013-08-13 09:48:00,63.5,50.7,30.08,NNE,25,10.0,13.0,63,0.00,,,0.00,Wunderground v.1.15,2013-08-13 14:48:00,
2013-08-13 09:50:00,63.5,50.7,30.08,North,356,10.0,10.0,63,0.00,,,0.00,Wunderground v.1.15,2013-08-13 14:50:00,
2013-08-13 09:53:00,63.7,50.9,30.08,NNE,13,10.0,10.0,63,0.00,,,0.00,Wunderground v.1.15,2013-08-13 14:53:00,
2013-08-13 09:56:00,63.8,50.5,30.08,NNE,20,9.0,10.0,62,0.00,,,0.00,Wunderground v.1.15,2013-08-13 14:56:00,
2013-08-13 10:00:00,64.4,51.5,30.08,NNE,26,9.0,11.0,63,0.00,,,0.00,Wunderground v.1.15,2013-08-13 15:00:00,
2013-08-13 10:02:00,64.5,50.7,30.08,NNE,25,9.0,11.0,61,0.00,,,0.00,Wunderground v.1.15,2013-08-13 15:02:00,
2013-08-13 10:04:00,64.3,50.1,30.08,North,8,9.0,11.0,60,0.00,,,0.00,Wunderground v.1.15,2013-08-13 15:04:00,
2013-08-13 10:08:00,64.6,50.4,30.08,North,359,9.0,11.0,60,0.00,,,0.00,Wunderground v.1.15,2013-08-13 15:08:00,
2013-08-13 10:10:00,64.7,50.5,30.08,NNE,22,9.0,9.0,60,0.00,,,0.00,Wunderground v.1.15,2013-08-13 15:10:00,
2013-08-13 10:12:00,64.7,50.0,30.09,NNE,20,8.0,10.0,59,0.00,,,0.00,Wunderground v.1.15,2013-08-13 15:12:00,
2013-08-13 10:14:00,64.6,49.9,30.09,NE,34,8.0,11.0,59,0.00,,,0.00,Wunderground v.1.15,2013-08-13 15:14:00,
2013-08-13 10:18:00,64.5,49.8,30.09,NNE,15,8.0,11.0,59,0.00,,,0.00,Wunderground v.1.15,2013-08-13 15:18:00,
2013-08-13 10:22:00,64.7,48.6,30.09,North,5,8.0,11.0,56,0.00,,,0.00,Wunderground v.1.15,2013-08-13 15:22:00,
2013-08-13 10:23:00,64.7,49.6,30.09,NE,34,8.0,11.0,58,0.00,,,0.00,Wunderground v.1.15,2013-08-13 15:23:00,
2013-08-13 10:28:00,64.8,49.7,30.09,NNE,18,9.0,11.0,58,0.00,,,0.00,Wunderground v.1.15,2013-08-13 15:28:00,
2013-08-13 10:30:00,64.8,49.2,30.09,NNE,25,8.0,8.0,57,0.00,,,0.00,Wunderground v.1.15,2013-08-13 15:30:00,
2013-08-13 10:32:00,64.9,49.3,30.09,NE,44,8.0,8.0,57,0.00,,,0.00,Wunderground v.1.15,2013-08-13 15:32:00,
2013-08-13 10:34:00,65.0,49.4,30.09,NNE,12,8.0,8.0,57,0.00,,,0.00,Wunderground v.1.15,2013-08-13 15:34:00,
2013-08-13 10:36:00,65.2,49.6,30.09,NNE,20,9.0,9.0,57,0.00,,,0.00,Wunderground v.1.15,2013-08-13 15:36:00,
2013-08-13 10:42:00,65.5,50.3,30.09,NNE,19,8.0,9.0,58,0.00,,,0.00,Wunderground v.1.15,2013-08-13 15:42:00,
2013-08-13 10:44:00,65.5,50.3,30.09,NNW,344,7.0,9.0,58,0.00,,,0.00,Wunderground v.1.15,2013-08-13 15:44:00,
2013-08-13 10:46:00,65.5,49.4,30.09,East,87,7.0,9.0,56,0.00,,,0.00,Wunderground v.1.15,2013-08-13 15:46:00,
2013-08-13 10:48:00,65.7,49.6,30.09,NNE,25,7.0,9.0,56,0.00,,,0.00,Wunderground v.1.15,2013-08-13 15:48:00,
2013-08-13 10:52:00,66.1,50.4,30.09,NNE,19,7.0,10.0,57,0.00,,,0.00,Wunderground v.1.15,2013-08-13 15:52:00,
2013-08-13 10:54:00,66.3,50.1,30.09,North,358,8.0,10.0,56,0.00,,,0.00,Wunderground v.1.15,2013-08-13 15:54:00,
2013-08-13 10:58:00,66.3,50.6,30.09,North,6,7.0,10.0,57,0.00,,,0.00,Wunderground v.1.15,2013-08-13 15:58:00,
2013-08-13 11:00:00,66.3,49.6,30.09,NNE,15,7.0,8.0,55,0.00,,,0.00,Wunderground v.1.15,2013-08-13 16:00:00,
2013-08-13 11:04:00,66.5,49.3,30.09,North,11,7.0,12.0,54,0.00,,,0.00,Wunderground v.1.15,2013-08-13 16:04:00,
2013-08-13 11:06:00,66.2,48.6,30.09,NNW,346,8.0,12.0,53,0.00,,,0.00,Wunderground v.1.15,2013-08-13 16:06:00,
2013-08-13 11:10:00,66.2,49.6,30.09,NE,36,8.0,8.0,55,0.00,,,0.00,Wunderground v.1.15,2013-08-13 16:10:00,
2013-08-13 11:14:00,66.9,50.2,30.09,North,359,7.0,8.0,55,0.00,,,0.00,Wunderground v.1.15,2013-08-13 16:14:00,
2013-08-13 11:16:00,66.9,49.2,30.09,NE,53,6.0,8.0,53,0.00,,,0.00,Wunderground v.1.15,2013-08-13 16:16:00,
2013-08-13 11:20:00,66.9,50.2,30.10,NNE,20,6.0,11.0,55,0.00,,,0.00,Wunderground v.1.15,2013-08-13 16:20:00,
2013-08-13 11:22:00,66.8,48.6,30.10,North,360,6.0,11.0,52,0.00,,,0.00,Wunderground v.1.15,2013-08-13 16:22:00,
2013-08-13 11:26:00,66.9,49.2,30.10,North,358,7.0,11.0,53,0.00,,,0.00,Wunderground v.1.15,2013-08-13 16:26:00,
2013-08-13 11:28:00,67.1,49.9,30.10,NE,43,8.0,11.0,54,0.00,,,0.00,Wunderground v.1.15,2013-08-13 16:28:00,
2013-08-13 11:32:00,66.8,48.6,30.10,North,6,9.0,10.0,52,0.00,,,0.00,Wunderground v.1.15,2013-08-13 16:32:00,
2013-08-13 11:36:00,66.9,50.2,30.10,NNE,23,9.0,10.0,55,0.00,,,0.00,Wunderground v.1.15,2013-08-13 16:36:00,
2013-08-13 11:40:00,66.9,49.7,30.10,NNE,25,8.0,8.0,54,0.00,,,0.00,Wunderground v.1.15,2013-08-13 16:40:00,
2013-08-13 11:44:00,67.2,51.0,30.10,NNE,23,6.0,8.0,56,0.00,,,0.00,Wunderground v.1.15,2013-08-13 16:44:00,
2013-08-13 11:46:00,67.8,52.0,30.10,NNE,13,6.0,11.0,57,0.00,,,0.00,Wunderground v.1.15,2013-08-13 16:46:00,
2013-08-13 11:48:00,68.0,49.7,30.10,North,4,6.0,11.0,52,0.00,,,0.00,Wunderground v.1.15,2013-08-13 16:48:00,
2013-08-13 11:50:00,68.0,50.2,30.10,NNE,27,6.0,9.0,53,0.00,,,0.00,Wunderground v.1.15,2013-08-13 16:50:00,
2013-08-13 11:52:00,67.9,49.6,30.10,NNW,348,7.0,9.0,52,0.00,,,0.00,Wunderground v.1.15,2013-08-13 16:52:00,
2013-08-13 11:56:00,67.8,47.9,30.10,NNE,18,9.0,11.0,49,0.00,,,0.00,Wunderground v.1.15,2013-08-13 16:56:00,
2013-08-13 11:58:00,67.9,49.6,30.10,NNE,13,8.0,11.0,52,0.00,,,0.00,Wunderground v.1.15,2013-08-13 16:58:00,
2013-08-13 12:00:00,68.0,50.2,30.10,NNE,33,9.0,13.0,53,0.00,,,0.00,Wunderground v.1.15,2013-08-13 17:00:00,
2013-08-13 12:04:00,68.1,49.8,30.10,NE,41,8.0,13.0,52,0.00,,,0.00,Wunderground v.1.15,2013-08-13 17:04:00,
2013-08-13 12:06:00,68.4,50.1,30.10,NNW,340,8.0,13.0,52,0.00,,,0.00,Wunderground v.1.15,2013-08-13 17:06:00,
2013-08-13 12:08:00,68.8,50.5,30.10,NNE,20,8.0,13.0,52,0.00,,,0.00,Wunderground v.1.15,2013-08-13 17:08:00,
2013-08-13 12:14:00,68.6,49.2,30.10,NNE,15,8.0,9.0,50,0.00,,,0.00,Wunderground v.1.15,2013-08-13 17:14:00,
2013-08-13 12:16:00,68.7,49.3,30.10,NE,54,8.0,14.0,50,0.00,,,0.00,Wunderground v.1.15,2013-08-13 17:16:00,
2013-08-13 12:20:00,68.8,48.9,30.10,North,357,8.0,12.0,49,0.00,,,0.00,Wunderground v.1.15,2013-08-13 17:20:00,
2013-08-13 12:22:00,68.6,49.7,30.10,NNE,19,8.0,12.0,51,0.00,,,0.00,Wunderground v.1.15,2013-08-13 17:22:00,
2013-08-13 12:24:00,68.5,49.7,30.10,NNE,33,8.0,12.0,51,0.00,,,0.00,Wunderground v.1.15,2013-08-13 17:24:00,
2013-08-13 12:28:00,69.1,50.7,30.10,NNE,20,8.0,12.0,52,0.00,,,0.00,Wunderground v.1.15,2013-08-13 17:28:00,
2013-08-13 12:34:00,69.4,51.0,30.10,ENE,65,7.0,8.0,52,0.00,,,0.00,Wunderground v.1.15,2013-08-13 17:34:00,
2013-08-13 12:38:00,69.6,52.2,30.10,NNE,13,7.0,11.0,54,0.00,,,0.00,Wunderground v.1.15,2013-08-13 17:38:00,
2013-08-13 12:40:00,69.7,51.3,30.10,North,8,7.0,9.0,52,0.00,,,0.00,Wunderground v.1.15,2013-08-13 17:40:00,
2013-08-13 12:44:00,69.6,49.6,30.10,NE,44,8.0,9.0,49,0.00,,,0.00,Wunderground v.1.15,2013-08-13 17:44:00,
2013-08-13 12:46:00,69.5,50.6,30.10,North,353,8.0,9.0,51,0.00,,,0.00,Wunderground v.1.15,2013-08-13 17:46:00,
2013-08-13 12:50:00,69.3,49.9,30.10,NNW,339,8.0,8.0,50,0.00,,,0.00,Wunderground v.1.15,2013-08-13 17:50:00,
2013-08-13 12:51:00,69.6,51.2,30.10,NNE,12,7.0,8.0,52,0.00,,,0.00,Wunderground v.1.15,2013-08-13 17:51:00,
2013-08-13 12:54:00,69.7,51.3,30.10,NNE,25,6.0,8.0,52,0.00,,,0.00,Wunderground v.1.15,2013-08-13 17:54:00,
2013-08-13 12:58:00,70.4,51.4,30.10,NNW,337,5.0,8.0,51,0.00,,,0.00,Wunderground v.1.15,2013-08-13 17:58:00,
2013-08-13 13:00:00,70.5,50.4,30.10,NNW,343,6.0,10.0,49,0.00,,,0.00,Wunderground v.1.15,2013-08-13 18:00:00,
2013-08-13 13:04:00,70.3,49.1,30.10,NNW,328,8.0,10.0,47,0.00,,,0.00,Wunderground v.1.15,2013-08-13 18:04:00,
2013-08-13 13:06:00,70.2,50.7,30.10,NNW,330,8.0,13.0,50,0.00,,,0.00,Wunderground v.1.15,2013-08-13 18:06:00,
2013-08-13 13:10:00,70.5,50.4,30.10,NNE,25,9.0,9.0,49,0.00,,,0.00,Wunderground v.1.15,2013-08-13 18:10:00,
2013-08-13 13:12:00,70.9,50.8,30.10,NW,319,7.0,12.0,49,0.00,,,0.00,Wunderground v.1.15,2013-08-13 18:12:00,
2013-08-13 13:13:00,71.1,49.8,30.10,North,5,8.0,12.0,47,0.00,,,0.00,Wunderground v.1.15,2013-08-13 18:13:00,
2013-08-13 13:15:00,70.8,49.6,30.10,NNE,20,8.0,12.0,47,0.00,,,0.00,Wunderground v.1.15,2013-08-13 18:15:00,
2013-08-13 13:20:00,70.4,49.2,30.10,NNE,13,8.0,8.0,47,0.00,,,0.00,Wunderground v.1.15,2013-08-13 18:20:00,
2013-08-13 13:22:00,70.4,48.6,30.10,NW,323,8.0,12.0,46,0.00,,,0.00,Wunderground v.1.15,2013-08-13 18:22:00,
2013-08-13 13:23:00,70.5,50.4,30.09,NNW,339,8.0,12.0,49,0.00,,,0.00,Wunderground v.1.15,2013-08-13 18:23:00,
2013-08-13 13:25:00,70.6,48.2,30.10,North,11,9.0,12.0,45,0.00,,,0.00,Wunderground v.1.15,2013-08-13 18:25:00,
2013-08-13 13:28:00,70.4,49.2,30.10,NNE,12,9.0,12.0,47,0.00,,,0.00,Wunderground v.1.15,2013-08-13 18:28:00,
2013-08-13 13:30:00,70.4,49.2,30.10,NNW,343,10.0,10.0,47,0.00,,,0.00,Wunderground v.1.15,2013-08-13 18:30:00,
2013-08-13 13:32:00,70.4,48.6,30.10,NW,304,10.0,10.0,46,0.00,,,0.00,Wunderground v.1.15,2013-08-13 18:32:00,
2013-08-13 13:36:00,70.5,47.5,30.10,NNW,339,10.0,10.0,44,0.00,,,0.00,Wunderground v.1.15,2013-08-13 18:36:00,
2013-08-13 13:38:00,70.6,48.8,30.09,NNW,334,10.0,11.0,46,0.00,,,0.00,Wunderground v.1.15,2013-08-13 18:38:00,
2013-08-13 13:40:00,70.7,48.3,30.09,NNW,344,10.0,10.0,45,0.00,,,0.00,Wunderground v.1.15,2013-08-13 18:40:00,
2013-08-13 13:42:00,70.9,49.1,30.10,NNW,348,10.0,17.0,46,0.00,,,0.00,Wunderground v.1.15,2013-08-13 18:42:00,
2013-08-13 13:44:00,71.0,48.6,30.10,North,1,10.0,17.0,45,0.00,,,0.00,Wunderground v.1.15,2013-08-13 18:44:00,
2013-08-13 13:46:00,71.3,47.6,30.10,North,357,10.0,17.0,43,0.00,,,0.00,Wunderground v.1.15,2013-08-13 18:46:00,
2013-08-13 13:52:00,71.2,49.4,30.10,NNE,12,9.0,9.0,46,0.00,,,0.00,Wunderground v.1.15,2013-08-13 18:52:00,
2013-08-13 13:54:00,71.2,47.6,30.10,NNE,26,8.0,9.0,43,0.00,,,0.00,Wunderground v.1.15,2013-08-13 18:54:00,
2013-08-13 13:58:00,70.5,48.1,30.09,ENE,66,8.0,9.0,45,0.00,,,0.00,Wunderground v.1.15,2013-08-13 18:58:00,
2013-08-13 14:00:00,70.8,50.7,30.09,North,5,9.0,13.0,49,0.00,,,0.00,Wunderground v.1.15,2013-08-13 19:00:00,
2013-08-13 14:04:00,71.4,49.5,30.09,WNW,294,9.0,13.0,46,0.00,,,0.00,Wunderground v.1.15,2013-08-13 19:04:00,
2013-08-13 14:06:00,71.5,47.8,30.10,NNE,13,9.0,13.0,43,0.00,,,0.00,Wunderground v.1.15,2013-08-13 19:06:00,
2013-08-13 14:08:00,71.2,46.9,30.09,WNW,301,10.0,13.0,42,0.00,,,0.00,Wunderground v.1.15,2013-08-13 19:08:00,
2013-08-13 14:12:00,71.2,49.9,30.10,North,353,9.0,10.0,47,0.00,,,0.00,Wunderground v.1.15,2013-08-13 19:12:00,
2013-08-13 14:14:00,71.3,47.0,30.10,NNE,26,9.0,12.0,42,0.00,,,0.00,Wunderground v.1.15,2013-08-13 19:14:00,
2013-08-13 14:18:00,70.7,47.7,30.09,NNE,12,9.0,12.0,44,0.00,,,0.00,Wunderground v.1.15,2013-08-13 19:18:00,
2013-08-13 14:20:00,70.8,49.0,30.10,NNE,27,9.0,9.0,46,0.00,,,0.00,Wunderground v.1.15,2013-08-13 19:20:00,
2013-08-13 14:24:00,71.2,49.9,30.09,North,6,9.0,10.0,47,0.00,,,0.00,Wunderground v.1.15,2013-08-13 19:24:00,
2013-08-13 14:28:00,71.1,48.1,30.09,North,5,10.0,12.0,44,0.00,,,0.00,Wunderground v.1.15,2013-08-13 19:28:00,
2013-08-13 14:30:00,71.1,48.1,30.09,NNE,22,9.0,11.0,44,0.00,,,0.00,Wunderground v.1.15,2013-08-13 19:30:00,
2013-08-13 14:32:00,71.1,48.7,30.09,NNE,18,10.0,11.0,45,0.00,,,0.00,Wunderground v.1.15,2013-08-13 19:32:00,
2013-08-13 14:34:00,71.4,48.3,30.10,NNE,15,10.0,11.0,44,0.00,,,0.00,Wunderground v.1.15,2013-08-13 19:34:00,
2013-08-13 14:38:00,71.2,48.8,30.09,North,8,10.0,13.0,45,0.00,,,0.00,Wunderground v.1.15,2013-08-13 19:38:00,
2013-08-13 14:40:00,71.2,49.4,30.09,NNW,347,10.0,10.0,46,0.00,,,0.00,Wunderground v.1.15,2013-08-13 19:40:00,
2013-08-13 14:42:00,71.2,49.4,30.09,NNE,20,8.0,10.0,46,0.00,,,0.00,Wunderground v.1.15,2013-08-13 19:42:00,
2013-08-13 14:44:00,71.4,49.5,30.09,NNE,32,8.0,10.0,46,0.00,,,0.00,Wunderground v.1.15,2013-08-13 19:44:00,
2013-08-13 14:46:00,71.6,49.1,30.09,North,5,8.0,10.0,45,0.00,,,0.00,Wunderground v.1.15,2013-08-13 19:46:00,
2013-08-13 14:48:00,71.5,49.6,30.09,NW,311,7.0,10.0,46,0.00,,,0.00,Wunderground v.1.15,2013-08-13 19:48:00,
2013-08-13 14:49:00,71.5,49.0,30.09,NNW,339,7.0,12.0,45,0.00,,,0.00,Wunderground v.1.15,2013-08-13 19:49:00,
2013-08-13 14:52:00,71.4,48.9,30.09,North,11,8.0,12.0,45,0.00,,,0.00,Wunderground v.1.15,2013-08-13 19:52:00,
2013-08-13 14:54:00,71.4,48.9,30.09,NNE,18,8.0,12.0,45,0.00,,,0.00,Wunderground v.1.15,2013-08-13 19:54:00,
2013-08-13 14:56:00,71.5,49.0,30.09,NNE,27,9.0,12.0,45,0.00,,,0.00,Wunderground v.1.15,2013-08-13 19:56:00,
2013-08-13 15:02:00,71.6,50.3,30.09,NNE,20,7.0,9.0,47,0.00,,,0.00,Wunderground v.1.15,2013-08-13 20:02:00,
2013-08-13 15:06:00,71.8,49.3,30.09,NNW,346,7.0,13.0,45,0.00,,,0.00,Wunderground v.1.15,2013-08-13 20:06:00,
2013-08-13 15:08:00,71.2,49.4,30.09,North,353,8.0,13.0,46,0.00,,,0.00,Wunderground v.1.15,2013-08-13 20:08:00,
2013-08-13 15:10:00,71.0,48.6,30.09,NNE,12,9.0,9.0,45,0.00,,,0.00,Wunderground v.1.15,2013-08-13 20:10:00,
2013-08-13 15:12:00,70.8,49.0,30.09,NNE,23,9.0,9.0,46,0.00,,,0.00,Wunderground v.1.15,2013-08-13 20:12:00,
2013-08-13 15:16:00,70.9,48.5,30.09,NNW,344,9.0,14.0,45,0.00,,,0.00,Wunderground v.1.15,2013-08-13 20:16:00,
2013-08-13 15:18:00,71.3,49.4,30.09,NNW,330,9.0,14.0,46,0.00,,,0.00,Wunderground v.1.15,2013-08-13 20:18:00,
2013-08-13 15:22:00,71.3,48.3,30.09,North,6,9.0,10.0,44,0.00,,,0.00,Wunderground v.1.15,2013-08-13 20:22:00,
2013-08-13 15:24:00,71.5,49.0,30.09,WNW,300,9.0,10.0,45,0.00,,,0.00,Wunderground v.1.15,2013-08-13 20:24:00,
2013-08-13 15:26:00,71.7,49.2,30.09,NW,322,9.0,10.0,45,0.00,,,0.00,Wunderground v.1.15,2013-08-13 20:26:00,
2013-08-13 15:28:00,71.8,48.1,30.09,NNE,22,9.0,10.0,43,0.00,,,0.00,Wunderground v.1.15,2013-08-13 20:28:00,
2013-08-13 15:30:00,71.5,48.4,30.09,NNE,26,9.0,11.0,44,0.00,,,0.00,Wunderground v.1.15,2013-08-13 20:30:00,
2013-08-13 15:36:00,71.2,48.2,30.09,NNW,346,10.0,11.0,44,0.00,,,0.00,Wunderground v.1.15,2013-08-13 20:36:00,
2013-08-13 15:38:00,71.7,50.4,30.09,North,354,9.0,11.0,47,0.00,,,0.00,Wunderground v.1.15,2013-08-13 20:38:00,
2013-08-13 15:42:00,72.6,51.2,30.09,North,11,7.0,9.0,47,0.00,,,0.00,Wunderground v.1.15,2013-08-13 20:42:00,
2013-08-13 15:45:00,72.3,48.5,30.09,NNW,334,8.0,11.0,43,0.00,,,0.00,Wunderground v.1.15,2013-08-13 20:45:00,
2013-08-13 15:48:00,72.3,49.8,30.09,North,5,8.0,11.0,45,0.00,,,0.00,Wunderground v.1.15,2013-08-13 20:48:00,
2013-08-13 15:52:00,72.4,51.0,30.09,NE,44,8.0,8.0,47,0.00,,,0.00,Wunderground v.1.15,2013-08-13 20:52:00,
2013-08-13 15:54:00,72.0,50.1,30.09,NNE,20,9.0,9.0,46,0.00,,,0.00,Wunderground v.1.15,2013-08-13 20:54:00,
2013-08-13 15:56:00,71.4,49.5,30.09,NNE,27,8.0,9.0,46,0.00,,,0.00,Wunderground v.1.15,2013-08-13 20:56:00,
2013-08-13 15:58:00,70.9,48.5,30.09,NNE,26,9.0,9.0,45,0.00,,,0.00,Wunderground v.1.15,2013-08-13 20:58:00,
2013-08-13 16:00:00,70.8,49.6,30.09,NNE,23,9.0,9.0,47,0.00,,,0.00,Wunderground v.1.15,2013-08-13 21:00:00,
2013-08-13 16:04:00,71.2,49.9,30.09,NE,34,9.0,12.0,47,0.00,,,0.00,Wunderground v.1.15,2013-08-13 21:04:00,
2013-08-13 16:06:00,71.3,50.0,30.09,NNE,13,9.0,12.0,47,0.00,,,0.00,Wunderground v.1.15,2013-08-13 21:06:00,
2013-08-13 16:12:00,71.9,50.0,30.09,North,8,8.0,9.0,46,0.00,,,0.00,Wunderground v.1.15,2013-08-13 21:12:00,
2013-08-13 16:16:00,71.9,50.0,30.09,NE,39,8.0,10.0,46,0.00,,,0.00,Wunderground v.1.15,2013-08-13 21:16:00,
2013-08-13 16:18:00,71.9,50.6,30.09,North,8,8.0,10.0,47,0.00,,,0.00,Wunderground v.1.15,2013-08-13 21:18:00,
2013-08-13 16:24:00,72.4,49.3,30.09,North,356,9.0,11.0,44,0.00,,,0.00,Wunderground v.1.15,2013-08-13 21:24:00,
2013-08-13 16:28:00,72.2,48.5,30.09,NW,319,8.0,11.0,43,0.00,,,0.00,Wunderground v.1.15,2013-08-13 21:28:00,
2013-08-13 16:30:00,72.2,49.1,30.09,NNE,22,7.0,8.0,44,0.00,,,0.00,Wunderground v.1.15,2013-08-13 21:30:00,
2013-08-13 16:34:00,72.1,49.6,30.09,NNE,30,8.0,12.0,45,0.00,,,0.00,Wunderground v.1.15,2013-08-13 21:34:00,
2013-08-13 16:40:00,71.2,48.8,30.09,NNE,20,10.0,10.0,45,0.00,,,0.00,Wunderground v.1.15,2013-08-13 21:40:00,
2013-08-13 16:42:00,71.4,50.1,30.09,North,9,9.0,10.0,47,0.00,,,0.00,Wunderground v.1.15,2013-08-13 21:42:00,
2013-08-13 16:44:00,71.6,49.7,30.09,NNW,345,8.0,11.0,46,0.00,,,0.00,Wunderground v.1.15,2013-08-13 21:44:00,
2013-08-13 16:48:00,71.9,48.8,30.09,NNW,332,8.0,11.0,44,0.00,,,0.00,Wunderground v.1.15,2013-08-13 21:48:00,
2013-08-13 16:50:00,71.9,48.8,30.09,NNE,12,8.0,8.0,44,0.00,,,0.00,Wunderground v.1.15,2013-08-13 21:50:00,
2013-08-13 16:52:00,72.0,49.5,30.09,NNE,23,8.0,11.0,45,0.00,,,0.00,Wunderground v.1.15,2013-08-13 21:52:00,
2013-08-13 16:54:00,72.0,50.1,30.09,NNE,15,9.0,11.0,46,0.00,,,0.00,Wunderground v.1.15,2013-08-13 21:54:00,
2013-08-13 16:56:00,72.0,49.5,30.09,NNE,13,9.0,11.0,45,0.00,,,0.00,Wunderground v.1.15,2013-08-13 21:56:00,
2013-08-13 17:02:00,71.7,50.4,30.09,NNW,338,9.0,9.0,47,0.00,,,0.00,Wunderground v.1.15,2013-08-13 22:02:00,
2013-08-13 17:04:00,71.4,49.5,30.09,NNW,336,9.0,9.0,46,0.00,,,0.00,Wunderground v.1.15,2013-08-13 22:04:00,
2013-08-13 17:08:00,71.0,49.7,30.09,North,358,8.0,9.0,47,0.00,,,0.00,Wunderground v.1.15,2013-08-13 22:08:00,
2013-08-13 17:10:00,71.1,51.0,30.09,North,350,8.0,10.0,49,0.00,,,0.00,Wunderground v.1.15,2013-08-13 22:10:00,
2013-08-13 17:14:00,71.0,50.9,30.09,NNE,18,7.0,10.0,49,0.00,,,0.00,Wunderground v.1.15,2013-08-13 22:14:00,
2013-08-13 17:16:00,71.0,51.4,30.09,WNW,293,7.0,10.0,50,0.00,,,0.00,Wunderground v.1.15,2013-08-13 22:16:00,
2013-08-13 17:18:00,70.7,50.0,30.09,NNW,330,7.0,12.0,48,0.00,,,0.00,Wunderground v.1.15,2013-08-13 22:18:00,
2013-08-13 17:20:00,70.5,51.0,30.09,NNE,12,7.0,8.0,50,0.00,,,0.00,Wunderground v.1.15,2013-08-13 22:20:00,
2013-08-13 17:22:00,70.1,50.0,30.09,North,351,7.0,9.0,49,0.00,,,0.00,Wunderground v.1.15,2013-08-13 22:22:00,
2013-08-13 17:26:00,69.4,50.5,30.09,NNW,344,8.0,9.0,51,0.00,,,0.00,Wunderground v.1.15,2013-08-13 22:26:00,
2013-08-13 17:28:00,69.2,50.3,30.09,NNW,344,7.0,9.0,51,0.00,,,0.00,Wunderground v.1.15,2013-08-13 22:28:00,
2013-08-13 17:30:00,69.0,50.1,30.09,NNW,340,7.0,8.0,51,0.00,,,0.00,Wunderground v.1.15,2013-08-13 22:30:00,
2013-08-13 17:32:00,68.8,49.9,30.09,NNE,19,7.0,8.0,51,0.00,,,0.00,Wunderground v.1.15,2013-08-13 22:32:00,
2013-08-13 17:34:00,68.8,49.4,30.09,North,351,6.0,8.0,50,0.00,,,0.00,Wunderground v.1.15,2013-08-13 22:34:00,
2013-08-13 17:36:00,68.8,50.5,30.09,NNW,347,5.0,8.0,52,0.00,,,0.00,Wunderground v.1.15,2013-08-13 22:36:00,
2013-08-13 17:40:00,69.4,51.0,30.09,NW,314,5.0,5.0,52,0.00,,,0.00,Wunderground v.1.15,2013-08-13 22:40:00,
2013-08-13 17:42:00,70.0,51.6,30.09,North,5,4.0,7.0,52,0.00,,,0.00,Wunderground v.1.15,2013-08-13 22:42:00,
2013-08-13 17:44:00,70.3,50.2,30.09,NE,37,5.0,10.0,49,0.00,,,0.00,Wunderground v.1.15,2013-08-13 22:44:00,
2013-08-13 17:48:00,69.9,49.3,30.09,NNE,12,8.0,11.0,48,0.00,,,0.00,Wunderground v.1.15,2013-08-13 22:48:00,
2013-08-13 17:50:00,69.7,49.1,30.09,NNE,27,9.0,9.0,48,0.00,,,0.00,Wunderground v.1.15,2013-08-13 22:50:00,
2013-08-13 17:52:00,69.6,49.6,30.09,NNE,23,9.0,9.0,49,0.00,,,0.00,Wunderground v.1.15,2013-08-13 22:52:00,
2013-08-13 17:56:00,69.3,49.9,30.09,NNE,18,9.0,10.0,50,0.00,,,0.00,Wunderground v.1.15,2013-08-13 22:56:00,
2013-08-13 17:58:00,69.2,49.8,30.09,North,5,8.0,10.0,50,0.00,,,0.00,Wunderground v.1.15,2013-08-13 22:58:00,
2013-08-13 18:00:00,69.1,50.2,30.09,NNE,12,8.0,8.0,51,0.00,,,0.00,Wunderground v.1.15,2013-08-13 23:00:00,
2013-08-13 18:02:00,69.0,50.1,30.09,North,357,7.0,8.0,51,0.00,,,0.00,Wunderground v.1.15,2013-08-13 23:02:00,
2013-08-13 18:04:00,69.0,51.2,30.09,NNE,16,7.0,8.0,53,0.00,,,0.00,Wunderground v.1.15,2013-08-13 23:04:00,
2013-08-13 18:06:00,68.9,51.1,30.09,NNE,20,6.0,8.0,53,0.00,,,0.00,Wunderground v.1.15,2013-08-13 23:06:00,
2013-08-13 18:08:00,68.9,50.5,30.09,NNE,29,5.0,8.0,52,0.00,,,0.00,Wunderground v.1.15,2013-08-13 23:08:00,
2013-08-13 18:12:00,69.1,51.2,30.09,NNE,26,5.0,8.0,53,0.00,,,0.00,Wunderground v.1.15,2013-08-13 23:12:00,
2013-08-13 18:14:00,69.1,50.2,30.09,NE,39,5.0,8.0,51,0.00,,,0.00,Wunderground v.1.15,2013-08-13 23:14:00,
2013-08-13 18:16:00,68.9,50.5,30.09,NNE,26,5.0,8.0,52,0.00,,,0.00,Wunderground v.1.15,2013-08-13 23:16:00,
2013-08-13 18:18:00,68.8,50.5,30.09,North,354,5.0,8.0,52,0.00,,,0.00,Wunderground v.1.15,2013-08-13 23:18:00,
2013-08-13 18:24:00,68.4,51.1,30.08,North,6,4.0,8.0,54,0.00,,,0.00,Wunderground v.1.15,2013-08-13 23:24:00,
2013-08-13 18:26:00,68.3,51.0,30.08,North,359,4.0,8.0,54,0.00,,,0.00,Wunderground v.1.15,2013-08-13 23:26:00,
2013-08-13 18:30:00,68.3,52.0,30.08,North,351,4.0,4.0,56,0.00,,,0.00,Wunderground v.1.15,2013-08-13 23:30:00,
2013-08-13 18:32:00,68.2,50.9,30.08,North,11,4.0,8.0,54,0.00,,,0.00,Wunderground v.1.15,2013-08-13 23:32:00,
2013-08-13 18:36:00,68.2,50.9,30.08,North,351,4.0,8.0,54,0.00,,,0.00,Wunderground v.1.15,2013-08-13 23:36:00,
2013-08-13 18:38:00,68.4,51.6,30.08,North,11,3.0,8.0,55,0.00,,,0.00,Wunderground v.1.15,2013-08-13 23:38:00,
2013-08-13 18:42:00,68.7,52.4,30.08,NW,325,4.0,8.0,56,0.00,,,0.00,Wunderground v.1.15,2013-08-13 23:42:00,
2013-08-13 18:44:00,68.8,52.0,30.08,North,359,3.0,8.0,55,0.00,,,0.00,Wunderground v.1.15,2013-08-13 23:44:00,
2013-08-13 18:46:00,68.9,52.6,30.08,North,359,3.0,8.0,56,0.00,,,0.00,Wunderground v.1.15,2013-08-13 23:46:00,
2013-08-13 18:48:00,68.8,52.5,30.08,North,357,3.0,8.0,56,0.00,,,0.00,Wunderground v.1.15,2013-08-13 23:48:00,
2013-08-13 18:52:00,68.7,51.4,30.08,North,360,3.0,8.0,54,0.00,,,0.00,Wunderground v.1.15,2013-08-13 23:52:00,
2013-08-13 18:56:00,68.7,52.4,30.08,NNE,13,4.0,8.0,56,0.00,,,0.00,Wunderground v.1.15,2013-08-13 23:56:00,
2013-08-13 18:58:00,68.7,52.4,30.08,NNE,15,3.0,8.0,56,0.00,,,0.00,Wunderground v.1.15,2013-08-13 23:58:00,
2013-08-13 19:02:00,68.6,50.8,30.08,NNE,18,3.0,8.0,53,0.00,,,0.00,Wunderground v.1.15,2013-08-14 00:02:00,
2013-08-13 19:04:00,68.5,51.2,30.08,NNE,13,3.0,8.0,54,0.00,,,0.00,Wunderground v.1.15,2013-08-14 00:04:00,
2013-08-13 19:06:00,68.5,51.2,30.08,North,1,3.0,8.0,54,0.00,,,0.00,Wunderground v.1.15,2013-08-14 00:06:00,
2013-08-13 19:10:00,68.3,51.5,30.08,North,9,3.0,8.0,55,0.00,,,0.00,Wunderground v.1.15,2013-08-14 00:10:00,
2013-08-13 19:12:00,68.3,51.5,30.08,North,11,3.0,8.0,55,0.00,,,0.00,Wunderground v.1.15,2013-08-14 00:12:00,
2013-08-13 19:14:00,68.2,51.4,30.08,North,11,2.0,8.0,55,0.00,,,0.00,Wunderground v.1.15,2013-08-14 00:14:00,
2013-08-13 19:18:00,68.1,52.3,30.08,North,9,2.0,8.0,57,0.00,,,0.00,Wunderground v.1.15,2013-08-14 00:18:00,
2013-08-13 19:20:00,68.1,51.8,30.09,North,8,1.0,8.0,56,0.00,,,0.00,Wunderground v.1.15,2013-08-14 00:20:00,
2013-08-13 19:22:00,68.1,51.8,30.08,North,1,1.0,8.0,56,0.00,,,0.00,Wunderground v.1.15,2013-08-14 00:22:00,
2013-08-13 19:28:00,67.8,52.5,30.08,NNW,343,1.0,8.0,58,0.00,,,0.00,Wunderground v.1.15,2013-08-14 00:28:00,
2013-08-13 19:30:00,67.7,52.9,30.08,NNW,343,1.0,1.0,59,0.00,,,0.00,Wunderground v.1.15,2013-08-14 00:30:00,
2013-08-13 19:32:00,67.6,52.8,30.08,NNW,343,1.0,8.0,59,0.00,,,0.00,Wunderground v.1.15,2013-08-14 00:32:00,
2013-08-13 19:36:00,67.4,52.6,30.08,NNW,343,1.0,8.0,59,0.00,,,0.00,Wunderground v.1.15,2013-08-14 00:36:00,
2013-08-13 19:38:00,67.3,52.5,30.08,NNW,343,1.0,8.0,59,0.00,,,0.00,Wunderground v.1.15,2013-08-14 00:38:00,
2013-08-13 19:40:00,67.2,52.4,30.08,NNW,343,1.0,8.0,59,0.00,,,0.00,Wunderground v.1.15,2013-08-14 00:40:00,
2013-08-13 19:42:00,67.1,51.8,30.08,NNW,343,1.0,8.0,58,0.00,,,0.00,Wunderground v.1.15,2013-08-14 00:42:00,
2013-08-13 19:44:00,67.0,52.2,30.08,NNW,343,1.0,8.0,59,0.00,,,0.00,Wunderground v.1.15,2013-08-14 00:44:00,
2013-08-13 19:50:00,66.4,52.5,30.08,NNW,343,1.0,1.0,61,0.00,,,0.00,Wunderground v.1.15,2013-08-14 00:50:00,
2013-08-13 19:52:00,66.2,52.8,30.08,NNW,343,0.0,8.0,62,0.00,,,0.00,Wunderground v.1.15,2013-08-14 00:52:00,
2013-08-13 19:54:00,65.8,52.4,30.09,NNW,343,0.0,8.0,62,0.00,,,0.00,Wunderground v.1.15,2013-08-14 00:54:00,
2013-08-13 19:58:00,65.2,52.7,30.08,NNW,343,0.0,8.0,64,0.00,,,0.00,Wunderground v.1.15,2013-08-14 00:58:00,
2013-08-13 20:02:00,64.7,52.7,30.08,NNW,343,0.0,8.0,65,0.00,,,0.00,Wunderground v.1.15,2013-08-14 01:02:00,
2013-08-13 20:04:00,64.5,52.5,30.08,NNW,343,0.0,8.0,65,0.00,,,0.00,Wunderground v.1.15,2013-08-14 01:04:00,
2013-08-13 20:06:00,64.3,52.7,30.08,NNW,343,0.0,8.0,66,0.00,,,0.00,Wunderground v.1.15,2013-08-14 01:06:00,
2013-08-13 20:08:00,64.1,52.5,30.08,NNW,343,0.0,8.0,66,0.00,,,0.00,Wunderground v.1.15,2013-08-14 01:08:00,
2013-08-13 20:10:00,64.0,52.8,30.08,NNW,343,0.0,8.0,67,0.00,,,0.00,Wunderground v.1.15,2013-08-14 01:10:00,
2013-08-13 20:12:00,63.8,52.6,30.09,NNW,343,0.0,8.0,67,0.00,,,0.00,Wunderground v.1.15,2013-08-14 01:12:00,
2013-08-13 20:16:00,63.7,52.5,30.08,NNW,345,0.0,8.0,67,0.00,,,0.00,Wunderground v.1.15,2013-08-14 01:16:00,
2013-08-13 20:18:00,63.5,52.7,30.08,NNW,346,0.0,8.0,68,0.00,,,0.00,Wunderground v.1.15,2013-08-14 01:18:00,
2013-08-13 20:22:00,63.2,52.9,30.09,NNW,345,0.0,8.0,69,0.00,,,0.00,Wunderground v.1.15,2013-08-14 01:22:00,
2013-08-13 20:24:00,63.1,52.8,30.09,NNW,346,0.0,8.0,69,0.00,,,0.00,Wunderground v.1.15,2013-08-14 01:24:00,
2013-08-13 20:28:00,62.6,52.7,30.09,NNW,345,0.0,8.0,70,0.00,,,0.00,Wunderground v.1.15,2013-08-14 01:28:00,
2013-08-13 20:30:00,62.5,52.6,30.09,NNW,346,0.0,8.0,70,0.00,,,0.00,Wunderground v.1.15,2013-08-14 01:30:00,
2013-08-13 20:36:00,62.0,52.5,30.09,NNW,345,0.0,8.0,71,0.00,,,0.00,Wunderground v.1.15,2013-08-14 01:36:00,
2013-08-13 20:38:00,62.0,52.5,30.09,NNW,345,0.0,8.0,71,0.00,,,0.00,Wunderground v.1.15,2013-08-14 01:38:00,
2013-08-13 20:40:00,61.8,52.7,30.09,NNW,344,0.0,8.0,72,0.00,,,0.00,Wunderground v.1.15,2013-08-14 01:40:00,
2013-08-13 20:42:00,61.6,52.5,30.09,NNW,344,0.0,8.0,72,0.00,,,0.00,Wunderground v.1.15,2013-08-14 01:42:00,
2013-08-13 20:44:00,61.5,52.4,30.09,NNW,344,0.0,8.0,72,0.00,,,0.00,Wunderground v.1.15,2013-08-14 01:44:00,
2013-08-13 20:46:00,61.4,52.7,30.09,NNW,344,0.0,8.0,73,0.00,,,0.00,Wunderground v.1.15,2013-08-14 01:46:00,
2013-08-13 20:50:00,61.3,52.6,30.09,NNW,344,0.0,8.0,73,0.00,,,0.00,Wunderground v.1.15,2013-08-14 01:50:00,
2013-08-13 20:52:00,61.2,52.1,30.10,NNW,345,0.0,8.0,72,0.00,,,0.00,Wunderground v.1.15,2013-08-14 01:52:00,
2013-08-13 20:54:00,61.1,52.4,30.09,NNW,344,0.0,8.0,73,0.00,,,0.00,Wunderground v.1.15,2013-08-14 01:54:00,
2013-08-13 20:56:00,61.0,52.3,30.10,NNW,345,0.0,8.0,73,0.00,,,0.00,Wunderground v.1.15,2013-08-14 01:56:00,
2013-08-13 21:00:00,60.9,52.2,30.10,NNW,345,0.0,8.0,73,0.00,,,0.00,Wunderground v.1.15,2013-08-14 02:00:00,
2013-08-13 21:02:00,61.1,52.0,30.10,NNW,345,0.0,8.0,72,0.00,,,0.00,Wunderground v.1.15,2013-08-14 02:02:00,
2013-08-13 21:04:00,61.1,52.0,30.10,NNW,344,0.0,8.0,72,0.00,,,0.00,Wunderground v.1.15,2013-08-14 02:04:00,
2013-08-13 21:08:00,61.1,52.4,30.10,NNW,344,0.0,8.0,73,0.00,,,0.00,Wunderground v.1.15,2013-08-14 02:08:00,
2013-08-13 21:10:00,61.0,52.3,30.10,NNW,344,0.0,8.0,73,0.00,,,0.00,Wunderground v.1.15,2013-08-14 02:10:00,
2013-08-13 21:14:00,61.1,52.4,30.11,NNW,344,0.0,8.0,73,0.00,,,0.00,Wunderground v.1.15,2013-08-14 02:14:00,
2013-08-13 21:16:00,61.1,52.0,30.11,NNW,344,0.0,8.0,72,0.00,,,0.00,Wunderground v.1.15,2013-08-14 02:16:00,
2013-08-13 21:18:00,61.2,52.1,30.11,NNW,345,0.0,8.0,72,0.00,,,0.00,Wunderground v.1.15,2013-08-14 02:18:00,
2013-08-13 21:22:00,61.4,51.9,30.11,NNW,344,0.0,8.0,71,0.00,,,0.00,Wunderground v.1.15,2013-08-14 02:22:00,
2013-08-13 21:24:00,61.6,52.1,30.11,NNW,344,0.0,8.0,71,0.00,,,0.00,Wunderground v.1.15,2013-08-14 02:24:00,
2013-08-13 21:28:00,61.9,52.0,30.11,NNW,344,0.0,8.0,70,0.00,,,0.00,Wunderground v.1.15,2013-08-14 02:28:00,
2013-08-13 21:30:00,61.9,52.0,30.11,NNW,344,0.0,8.0,70,0.00,,,0.00,Wunderground v.1.15,2013-08-14 02:30:00,
2013-08-13 21:32:00,62.0,51.7,30.11,NNW,344,0.0,8.0,69,0.00,,,0.00,Wunderground v.1.15,2013-08-14 02:32:00,
2013-08-13 21:36:00,62.0,52.1,30.11,NNW,345,0.0,8.0,70,0.00,,,0.00,Wunderground v.1.15,2013-08-14 02:36:00,
2013-08-13 21:38:00,61.8,51.9,30.11,NNW,345,0.0,8.0,70,0.00,,,0.00,Wunderground v.1.15,2013-08-14 02:38:00,
2013-08-13 21:40:00,61.7,51.8,30.11,NNW,344,0.0,8.0,70,0.00,,,0.00,Wunderground v.1.15,2013-08-14 02:40:00,
2013-08-13 21:44:00,61.5,52.0,30.11,NNW,344,0.0,8.0,71,0.00,,,0.00,Wunderground v.1.15,2013-08-14 02:44:00,
2013-08-13 21:46:00,61.3,51.8,30.11,NNW,345,0.0,8.0,71,0.00,,,0.00,Wunderground v.1.15,2013-08-14 02:46:00,
2013-08-13 21:48:00,61.2,51.7,30.11,NNW,345,0.0,8.0,71,0.00,,,0.00,Wunderground v.1.15,2013-08-14 02:48:00,
2013-08-13 21:50:00,61.1,51.6,30.11,NNW,344,0.0,8.0,71,0.00,,,0.00,Wunderground v.1.15,2013-08-14 02:50:00,
2013-08-13 21:52:00,61.0,51.5,30.11,NNW,345,0.0,8.0,71,0.00,,,0.00,Wunderground v.1.15,2013-08-14 02:52:00,
2013-08-13 21:54:00,60.9,51.4,30.11,NNW,344,0.0,8.0,71,0.00,,,0.00,Wunderground v.1.15,2013-08-14 02:54:00,
2013-08-13 21:56:00,60.9,51.4,30.11,NNW,344,0.0,8.0,71,0.00,,,0.00,Wunderground v.1.15,2013-08-14 02:56:00,
2013-08-13 22:00:00,60.9,51.8,30.11,NNW,344,0.0,8.0,72,0.00,,,0.00,Wunderground v.1.15,2013-08-14 03:00:00,
2013-08-13 22:02:00,60.9,51.8,30.11,NNW,344,0.0,8.0,72,0.00,,,0.00,Wunderground v.1.15,2013-08-14 03:02:00,
2013-08-13 22:04:00,60.8,51.3,30.11,NNW,345,0.0,8.0,71,0.00,,,0.00,Wunderground v.1.15,2013-08-14 03:04:00,
2013-08-13 22:06:00,60.8,51.3,30.11,NNW,344,0.0,8.0,71,0.00,,,0.00,Wunderground v.1.15,2013-08-14 03:06:00,
2013-08-13 22:08:00,60.8,51.3,30.11,NNW,344,0.0,8.0,71,0.00,,,0.00,Wunderground v.1.15,2013-08-14 03:08:00,
2013-08-13 22:10:00,60.9,51.4,30.11,NNW,344,0.0,8.0,71,0.00,,,0.00,Wunderground v.1.15,2013-08-14 03:10:00,
2013-08-13 22:14:00,61.0,51.1,30.11,NNW,345,0.0,8.0,70,0.00,,,0.00,Wunderground v.1.15,2013-08-14 03:14:00,
2013-08-13 22:16:00,61.0,51.1,30.11,NNW,344,0.0,8.0,70,0.00,,,0.00,Wunderground v.1.15,2013-08-14 03:16:00,
2013-08-13 22:18:00,61.1,51.2,30.11,NNW,344,0.0,8.0,70,0.00,,,0.00,Wunderground v.1.15,2013-08-14 03:18:00,
2013-08-13 22:22:00,61.2,51.3,30.11,NNW,343,1.0,8.0,70,0.00,,,0.00,Wunderground v.1.15,2013-08-14 03:22:00,
2013-08-13 22:24:00,61.2,51.3,30.12,NNW,343,2.0,8.0,70,0.00,,,0.00,Wunderground v.1.15,2013-08-14 03:24:00,
2013-08-13 22:28:00,60.9,51.0,30.12,NNW,343,2.0,8.0,70,0.00,,,0.00,Wunderground v.1.15,2013-08-14 03:28:00,
2013-08-13 22:30:00,60.9,51.0,30.12,NNW,343,2.0,2.0,70,0.00,,,0.00,Wunderground v.1.15,2013-08-14 03:30:00,
2013-08-13 22:34:00,60.8,51.3,30.11,NNW,343,1.0,8.0,71,0.00,,,0.00,Wunderground v.1.15,2013-08-14 03:34:00,
2013-08-13 22:36:00,60.7,51.2,30.12,NNW,343,1.0,8.0,71,0.00,,,0.00,Wunderground v.1.15,2013-08-14 03:36:00,
2013-08-13 22:40:00,60.2,51.1,30.11,NNW,343,1.0,8.0,72,0.00,,,0.00,Wunderground v.1.15,2013-08-14 03:40:00,
2013-08-13 22:44:00,59.8,51.1,30.12,NNW,343,1.0,8.0,73,0.00,,,0.00,Wunderground v.1.15,2013-08-14 03:44:00,
2013-08-13 22:48:00,59.3,51.4,30.11,NNW,343,1.0,8.0,75,0.00,,,0.00,Wunderground v.1.15,2013-08-14 03:48:00,
2013-08-13 22:50:00,59.1,51.2,30.11,NNW,343,1.0,1.0,75,0.00,,,0.00,Wunderground v.1.15,2013-08-14 03:50:00,
2013-08-13 22:52:00,58.7,51.2,30.11,NNW,343,0.0,8.0,76,0.00,,,0.00,Wunderground v.1.15,2013-08-14 03:52:00,
2013-08-13 22:56:00,58.2,51.0,30.12,NNW,343,0.0,8.0,77,0.00,,,0.00,Wunderground v.1.15,2013-08-14 03:56:00,
2013-08-13 23:02:00,58.0,51.2,30.12,NNW,343,0.0,8.0,78,0.00,,,0.00,Wunderground v.1.15,2013-08-14 04:02:00,
2013-08-13 23:06:00,58.0,51.2,30.12,NNW,343,0.0,8.0,78,0.00,,,0.00,Wunderground v.1.15,2013-08-14 04:06:00,
2013-08-13 23:08:00,57.8,51.0,30.12,NNW,343,0.0,8.0,78,0.00,,,0.00,Wunderground v.1.15,2013-08-14 04:08:00,
2013-08-13 23:10:00,57.7,50.9,30.12,NNW,343,0.0,8.0,78,0.00,,,0.00,Wunderground v.1.15,2013-08-14 04:10:00,
2013-08-13 23:14:00,57.4,50.9,30.12,NNW,343,0.0,8.0,79,0.00,,,0.00,Wunderground v.1.15,2013-08-14 04:14:00,
2013-08-13 23:16:00,57.4,50.9,30.12,NNW,343,0.0,8.0,79,0.00,,,0.00,Wunderground v.1.15,2013-08-14 04:16:00,
2013-08-13 23:18:00,57.4,50.6,30.13,NNW,343,0.0,8.0,78,0.00,,,0.00,Wunderground v.1.15,2013-08-14 04:18:00,
2013-08-13 23:20:00,57.4,50.6,30.12,NNW,343,0.0,8.0,78,0.00,,,0.00,Wunderground v.1.15,2013-08-14 04:20:00,
2013-08-13 23:24:00,57.1,50.6,30.13,WSW,252,0.0,8.0,79,0.00,,,0.00,Wunderground v.1.15,2013-08-14 04:24:00,
2013-08-13 23:26:00,56.8,50.7,30.13,WSW,250,0.0,8.0,80,0.00,,,0.00,Wunderground v.1.15,2013-08-14 04:26:00,
2013-08-13 23:28:00,56.5,50.7,30.13,WSW,240,0.0,8.0,81,0.00,,,0.00,Wunderground v.1.15,2013-08-14 04:28:00,
2013-08-13 23:30:00,56.2,50.8,30.13,WSW,241,0.0,8.0,82,0.00,,,0.00,Wunderground v.1.15,2013-08-14 04:30:00,
2013-08-13 23:32:00,56.0,50.6,30.13,WSW,240,0.0,8.0,82,0.00,,,0.00,Wunderground v.1.15,2013-08-14 04:32:00,
2013-08-13 23:34:00,55.8,50.7,30.13,WSW,240,0.0,8.0,83,0.00,,,0.00,Wunderground v.1.15,2013-08-14 04:34:00,
2013-08-13 23:38:00,55.3,50.2,30.13,WSW,240,0.0,8.0,83,0.00,,,0.00,Wunderground v.1.15,2013-08-14 04:38:00,
2013-08-13 23:42:00,54.6,49.5,30.13,SW,214,0.0,8.0,83,0.00,,,0.00,Wunderground v.1.15,2013-08-14 04:42:00,
2013-08-13 23:44:00,54.1,49.7,30.13,SW,214,0.0,8.0,85,0.00,,,0.00,Wunderground v.1.15,2013-08-14 04:44:00,
2013-08-13 23:46:00,53.8,49.7,30.13,SW,214,0.0,8.0,86,0.00,,,0.00,Wunderground v.1.15,2013-08-14 04:46:00,
2013-08-13 23:48:00,53.4,49.6,30.13,SW,214,0.0,8.0,87,0.00,,,0.00,Wunderground v.1.15,2013-08-14 04:48:00,
2013-08-13 23:50:00,53.2,49.4,30.13,SW,214,0.0,8.0,87,0.00,,,0.00,Wunderground v.1.15,2013-08-14 04:50:00,
2013-08-13 23:54:00,53.0,49.8,30.13,SW,214,0.0,8.0,89,0.00,,,0.00,Wunderground v.1.15,2013-08-14 04:54:00,
2013-08-13 23:56:00,52.9,49.7,30.13,SW,214,0.0,8.0,89,0.00,,,0.00,Wunderground v.1.15,2013-08-14 04:56:00,